Tampa Knight Airport, FL

5:02 PM EDT on March 26, 2017 (GMT -0400)
Knight

Weather History for KTPF - October, 2012

Change the Weather History Date:

Tuesday, October 30, 2012

  Actual Average (KTPA) Record (KTPA)
Temperature  
Mean Temperature 58 °F -  
Max Temperature 66 °F 79 °F 91 °F (2009)
Min Temperature 51 °F 63 °F 41 °F (1963)
Degree Days  
Heating Degree Days 6    
Growing Degree Days 8 (Base 50)    
Moisture  
Dew Point 42 °F    
Average Humidity 50    
Maximum Humidity 71    
Minimum Humidity 37    
Precipitation  
Precipitation 0.00 in - - ()
Sea Level Pressure  
Sea Level Pressure 29.92 in    
Wind  
Wind Speed 7 mph (NW)    
Max Wind Speed 15 mph    
Max Gust Speed 28 mph    
Visibility 10 miles    
Events      
Averages and records for this station are not official NWS values.
T = Trace of Precipitation, MM = Missing Value Source: NWS Daily Summary

Daily Weather History Graph

Daily Weather History Graph

Search for Another Location

Airport or City:

Trip Planner

Search our weather history database for the weather conditions in past years. The results will help you decide how hot, cold, wet, or windy it might be!

Date:

Astronomy

Oct. 30, 2012 Rise Set
Actual Time 7:39 AM EDT 6:46 PM EDT
Civil Twilight 7:15 AM EDT 7:10 PM EDT
Nautical Twilight 6:48 AM EDT 7:38 PM EDT
Astronomical Twilight 6:20 AM EDT 8:05 PM EDT
Moon 7:22 PM EDT (10/30) 8:19 AM EDT (10/30)
Length of Visible Light 11h 54m
Length of Day
11h 06m
Full, 99% of the Moon is Illuminated
Oct 30
Full
Nov 6
Last Quarter
Nov 13
New
Nov 20
First Quarter
Nov 28
Full

Hourly Weather History & Observations

Time (EDT) Temp. Dew Point Humidity Pressure Visibility Wind Dir Wind Speed Gust Speed Precip Events Conditions
12:15 AM 60.8 °F 41.0 °F 48% 29.87 in 10.0 mi NNW 5.8 mph - N/A   Clear
12:35 AM 60.8 °F 41.0 °F 48% 29.87 in 10.0 mi North 3.5 mph - N/A   Clear
12:55 AM 59.0 °F 41.0 °F 51% 29.87 in 10.0 mi NNW 5.8 mph - N/A   Clear
1:15 AM 59.0 °F 41.0 °F 51% 29.87 in 10.0 mi NNW 5.8 mph - N/A   Clear
1:35 AM 59.0 °F 41.0 °F 51% 29.87 in 10.0 mi North 3.5 mph - N/A   Clear
1:55 AM 59.0 °F 41.0 °F 51% 29.87 in 10.0 mi North 5.8 mph - N/A   Clear
2:15 AM 57.2 °F 41.0 °F 55% 29.87 in 10.0 mi North 6.9 mph - N/A   Clear
2:35 AM 57.2 °F 41.0 °F 55% 29.86 in 10.0 mi Calm Calm - N/A   Clear
2:55 AM 53.6 °F 42.8 °F 67% 29.86 in 10.0 mi NNE 3.5 mph - N/A   Clear
3:15 AM 51.8 °F 41.0 °F 67% 29.87 in 10.0 mi NE 4.6 mph - N/A   Scattered Clouds
3:55 AM 53.6 °F 41.0 °F 62% 29.87 in 10.0 mi NE 4.6 mph - N/A   Scattered Clouds
4:15 AM 51.8 °F 41.0 °F 67% 29.87 in 10.0 mi Calm Calm - N/A   Scattered Clouds
4:55 AM 51.8 °F 42.8 °F 71% 29.88 in 10.0 mi Calm Calm - N/A   Scattered Clouds
5:15 AM 53.6 °F 41.0 °F 62% 29.88 in 10.0 mi North 3.5 mph - N/A   Scattered Clouds
5:35 AM 53.6 °F 41.0 °F 62% 29.89 in 10.0 mi North 4.6 mph - N/A   Clear
5:55 AM 55.4 °F 41.0 °F 58% 29.89 in 10.0 mi NNW 4.6 mph - N/A   Scattered Clouds
6:15 AM 55.4 °F 41.0 °F 58% 29.89 in 10.0 mi NNW 4.6 mph - N/A   Scattered Clouds
6:35 AM 55.4 °F 39.2 °F 54% 29.90 in 10.0 mi North 3.5 mph - N/A   Clear
6:55 AM 55.4 °F 41.0 °F 58% 29.91 in 10.0 mi NNW 4.6 mph - N/A   Clear
7:15 AM 55.4 °F 41.0 °F 58% 29.91 in 10.0 mi NNW 4.6 mph - N/A   Clear
7:35 AM 55.4 °F 39.2 °F 54% 29.92 in 10.0 mi NW 4.6 mph - N/A   Clear
7:55 AM 55.4 °F 39.2 °F 54% 29.92 in 10.0 mi NW 3.5 mph - N/A   Clear
8:15 AM 57.2 °F 39.2 °F 51% 29.92 in 10.0 mi NW 6.9 mph - N/A   Clear
8:35 AM 59.0 °F 41.0 °F 51% 29.93 in 10.0 mi NW 6.9 mph - N/A   Clear
8:55 AM 59.0 °F 41.0 °F 51% 29.93 in 10.0 mi NW 8.1 mph - N/A   Clear
9:15 AM 60.8 °F 41.0 °F 48% 29.94 in 10.0 mi NW 9.2 mph 16.1 mph N/A   Clear
9:35 AM 60.8 °F 39.2 °F 45% 29.94 in 10.0 mi NW 11.5 mph 21.9 mph N/A   Clear
9:55 AM 60.8 °F 41.0 °F 48% 29.95 in 10.0 mi WNW 11.5 mph 19.6 mph N/A   Clear
10:15 AM 62.6 °F 41.0 °F 45% 29.94 in 10.0 mi NW 9.2 mph 23.0 mph N/A   Clear
10:35 AM 62.6 °F 41.0 °F 45% 29.95 in 10.0 mi WNW 11.5 mph 25.3 mph N/A   Clear
10:55 AM 62.6 °F 41.0 °F 45% 29.95 in 10.0 mi WNW 12.7 mph 20.7 mph N/A   Clear
11:15 AM 62.6 °F 37.4 °F 39% 29.96 in 10.0 mi WNW 11.5 mph 23.0 mph N/A   Clear
11:35 AM 62.6 °F 37.4 °F 39% 29.96 in 10.0 mi WNW 12.7 mph 23.0 mph N/A   Clear
11:55 AM 64.4 °F 37.4 °F 37% 29.96 in 10.0 mi NW 13.8 mph 24.2 mph N/A   Clear
12:15 PM 64.4 °F 37.4 °F 37% 29.95 in 10.0 mi NW 15.0 mph 24.2 mph N/A   Clear
12:35 PM 64.4 °F 37.4 °F 37% 29.95 in 10.0 mi WNW 9.2 mph 25.3 mph N/A   Clear
12:55 PM 64.4 °F 37.4 °F 37% 29.94 in 10.0 mi NW 11.5 mph 27.6 mph N/A   Clear
1:15 PM 64.4 °F 37.4 °F 37% 29.93 in 10.0 mi NW 10.4 mph 26.5 mph N/A   Clear
1:35 PM 64.4 °F 37.4 °F 37% 29.93 in 10.0 mi NW 13.8 mph 26.5 mph N/A   Clear
1:55 PM 64.4 °F 37.4 °F 37% 29.93 in 10.0 mi NW 12.7 mph 23.0 mph N/A   Clear
2:15 PM 64.4 °F 39.2 °F 40% 29.92 in 10.0 mi West 13.8 mph 20.7 mph N/A   Clear
2:35 PM 64.4 °F 37.4 °F 37% 29.92 in 10.0 mi WNW 13.8 mph 23.0 mph N/A   Clear
2:55 PM 64.4 °F 37.4 °F 37% 29.92 in 10.0 mi WNW 10.4 mph 19.6 mph N/A   Clear
3:15 PM 64.4 °F 37.4 °F 37% 29.92 in 10.0 mi WNW 11.5 mph 20.7 mph N/A   Clear
3:35 PM 64.4 °F 37.4 °F 37% 29.92 in 10.0 mi WNW 12.7 mph 20.7 mph N/A   Clear
3:55 PM 66.2 °F 39.2 °F 37% 29.92 in 10.0 mi WNW 11.5 mph 20.7 mph N/A   Clear
4:15 PM 64.4 °F 41.0 °F 42% 29.91 in 10.0 mi WNW 10.4 mph 19.6 mph N/A   Clear
4:35 PM 64.4 °F 42.8 °F 45% 29.91 in 10.0 mi West 9.2 mph 19.6 mph N/A   Clear
4:55 PM 64.4 °F 41.0 °F 42% 29.91 in 10.0 mi WNW 12.7 mph 20.7 mph N/A   Clear
5:15 PM 64.4 °F 42.8 °F 45% 29.91 in 10.0 mi NW 10.4 mph 23.0 mph N/A   Clear
5:35 PM 64.4 °F 42.8 °F 45% 29.91 in 10.0 mi WNW 11.5 mph 19.6 mph N/A   Clear
5:55 PM 64.4 °F 44.6 °F 49% 29.91 in 10.0 mi WNW 6.9 mph 17.3 mph N/A   Clear
6:15 PM 62.6 °F 44.6 °F 52% 29.91 in 10.0 mi WNW 11.5 mph 21.9 mph N/A   Clear
6:35 PM 62.6 °F 44.6 °F 52% 29.91 in 10.0 mi West 11.5 mph 19.6 mph N/A   Clear
6:55 PM 62.6 °F 46.4 °F 55% 29.91 in 10.0 mi WNW 11.5 mph 17.3 mph N/A   Clear
7:15 PM 62.6 °F 44.6 °F 52% 29.92 in 10.0 mi West 8.1 mph 18.4 mph N/A   Clear
7:35 PM 62.6 °F 46.4 °F 55% 29.92 in 10.0 mi WNW 6.9 mph - N/A   Clear
7:55 PM 62.6 °F 46.4 °F 55% 29.92 in 10.0 mi WNW 9.2 mph 17.3 mph N/A   Clear
8:15 PM 62.6 °F 46.4 °F 55% 29.93 in 10.0 mi WNW 9.2 mph 20.7 mph N/A   Clear
8:55 PM 62.6 °F 46.4 °F 55% 29.94 in 10.0 mi NW 8.1 mph 17.3 mph N/A   Clear
9:15 PM 62.6 °F 46.4 °F 55% 29.95 in 10.0 mi NW 6.9 mph 19.6 mph N/A   Clear
9:35 PM 62.6 °F 46.4 °F 55% 29.96 in 10.0 mi NW 8.1 mph - N/A   Clear
9:55 PM 62.6 °F 46.4 °F 55% 29.96 in 10.0 mi NW 5.8 mph - N/A   Clear
10:15 PM 62.6 °F 46.4 °F 55% 29.97 in 10.0 mi NW 6.9 mph - N/A   Clear
10:35 PM 62.6 °F 46.4 °F 55% 29.98 in 10.0 mi WNW 3.5 mph - N/A   Clear
10:55 PM 62.6 °F 46.4 °F 55% 29.98 in 10.0 mi NW 3.5 mph - N/A   Clear
11:15 PM 62.6 °F 46.4 °F 55% 29.98 in 10.0 mi NW 4.6 mph - N/A   Clear
11:35 PM 62.6 °F 46.4 °F 55% 29.97 in 10.0 mi NW 5.8 mph - N/A   Clear
11:55 PM 62.6 °F 46.4 °F 55% 29.98 in 10.0 mi NW 3.5 mph - N/A   Clear